sat.trackr.live / text

‹ back to catalog

STARLINK-37930

NORAD 69668 · 2026-143V

PAYLOAD ACTIVE UNKNOWN

§ Identity

Operator
Country
US
Launch date
2026-06-21
Launch site
AFWTR
Launch vehicle
Mass (kg)
RCS (m²)

Purposes: comms

External: N2YO · Heavens-Above · Gunter

§ Orbital elements

Epoch: 2026-09-19T22:04:35.349312Z

Period
93.91 min
Inclination
97.2849°
Eccentricity
0.0000825
Mean motion
15.33433120 rev/d
Perigee alt
465.0 km
Apogee alt
466.1 km
Semi-major
6,843.7 km
B*
4.0751e-4
RAAN
306.1168°
Arg perigee
95.7308°
Mean anomaly
264.4029°
Rev number
1,505

§ Raw data

STARLINK-379301 69668U 26143V   26262.91985358  .00013099  00000+0  40751-3 0  99982 69668  97.2849 306.1168 0000825  95.7308 264.4029 15.33433120 15051

JSON: /api/v1/satellites/69668 · /tle

For live sub-satellite position, see the globe view (requires WebGL).

§ Visibility from observer

Set your observer location to see the next 7 days of passes ≥ 10°. The values pass through the URL so the page stays shareable.

No JS? Fill the form by hand. The geolocation button needs JavaScript.